Header for Extended Forecast Station List Page

Search by: ID | Name | Date | Parm | Value | Avg | % Avg
Sort by: ID | Name | Date | Parm | Value | Avg | % Avg

Enter search or view all records.

Click on id for station plot
#IDNameDateParmValueAvg% Avg
0LYDM8KOOTENAI-LIBBY DAM11-30-2020INFLOW (KAF)77178798
1LEOI1KOOTENAI-AT LEONIA11-30-2020DISCHARGE (KAF)22031310168
2BFEI1KOOTENAI-AT BONNERS FERRY11-30-2020STAGE (FT)MMM
3FCFM8NF FLATHEAD-NEAR COLUMBIA FALLS11-30-2020DISCHARGE (KAF)16317096
4WGCM8MF FLATHEAD-NEAR WEST GLACIER11-30-2020DISCHARGE (KAF)153150102
5HHWM8SF FLATHEAD-HUNGRY HORSE DAM11-30-2020INFLOW (KAF)21624090
6CFMM8FLATHEAD-AT COLUMBIA FALLS11-30-2020DISCHARGE (KAF)889115077
7DLGM8CLARK FORK-AT DEER LODGE11-30-2020DISCHARGE (KAF)7762124
8DRMM8CLARK FORK-NR DRUMMOND11-30-2020DISCHARGE (KAF)155MM
9RCCM8ROCK CREEK-NEAR CLINTON11-30-2020DISCHARGE (KAF)5946130
10BONM8BLACKFOOT-NEAR BONNER11-30-2020DISCHARGE (KAF)178136131
11ABOM8CLARK FORK-ABOVE MISSOULA11-30-2020DISCHARGE (KAF)408342119
12BITM8BITTERROOT-NEAR MISSOULA11-30-2020DISCHARGE (KAF)238225106
13BELM8CLARK FORK-BELOW MISSOULA11-30-2020DISCHARGE (KAF)646576112
14STRM8ST. REGIS-NEAR ST. REGIS11-30-2020DISCHARGE (KAF)225043
15SRGM8CLARK FORK-AT ST REGIS11-30-2020DISCHARGE (KAF)781774101
16KERM8FLATHEAD-SELI’Š KSANKA QLISPE’ DAM11-30-2020INFLOW (KAF)1048151069
17NOXM8CLARK FORK-NOXON RAPIDS DAM11-30-2020INFLOW (KAF)2826372076
18CABI1CLARK FORK-CABINET GORGE DAM11-30-2020INFLOW (KAF)3121390080
19PRTI1PRIEST-NEAR PRIEST RIVER11-30-2020DISCHARGE (KAF)10921551
20ALFW1PEND OREILLE-ALBENI FALLS DAM11-30-2020INFLOW (KAF)3419459174
21HOPI1PEND OREILLE-PEND OREILLE LAKE NR HOPE11-30-2020LAKE ELEVATION (FT)MMM
22COEI1COEUR D ALENE-COEUR D ALENE LAKE11-30-2020INFLOW (KAF)761110169
23SPOW1SPOKANE-AT SPOKANE11-30-2020DISCHARGE (KAF)701MM
24LLKW1SPOKANE-AT LONGLAKE11-30-2020INFLOW (KAF)958161859
25SATI1ST MARIES-NEAR SANTA11-30-2020DISCHARGE (KAF)266342
26SJMI1ST JOE-AT ST MARIES11-30-2020STAGE (FT)MMM
27CIBW1COLUMBIA-AT INTL BOUNDARY11-30-2020DISCHARGE (KAF)21437MM
28LAUW1KETTLE-AT LAURIER11-30-2020DISCHARGE (KAF)10913183
29GCDW1COLUMBIA-GRAND COULEE DAM11-30-2020INFLOW (KAF)2254817143132
30CHJW1COLUMBIA-CHIEF JOSEPH DAM11-30-2020INFLOW (KAF)2473622992108
31TONW1OKANOGAN-NEAR TONASKET11-30-2020DISCHARGE (KAF)25629288
32PATW1METHOW-NEAR PATEROS11-30-2020DISCHARGE (KAF)889889
33WELW1COLUMBIA-WELLS DAM11-30-2020INFLOW (KAF)2508123398107
34CHDW1CHELAN-LAKE CHELAN DAM11-30-2020INFLOW (KAF)13317078
35RRHW1COLUMBIA-ROCKY REACH DAM11-30-2020INFLOW (KAF)2546223958106
36ARDW1ENTIAT-NEAR ARDENVOIR11-30-2020DISCHARGE (KAF)2323100
37PESW1WENATCHEE-AT PESHASTIN11-30-2020DISCHARGE (KAF)23631974
38WANW1COLUMBIA-WANAPUM DAM11-30-2020INFLOW (KAF)2577920954123
39PRWW1COLUMBIA-PRIEST RAPIDS DAM11-30-2020INFLOW (KAF)2578421250121
40KEDW1YAKIMA-KEECHELUS LAKE11-30-2020INFLOW (KAF)395078
41KADW1KACHESS-KACHESS DAM11-30-2020INFLOW (KAF)404981
42EASW1YAKIMA-AT EASTON11-30-2020DISCHARGE (KAF)588172
43CLUW1CLE ELUM-CLE ELUM LAKE11-30-2020INFLOW (KAF)8110776
44TNAW1TEANAWAY-BELOW FORKS11-30-2020DISCHARGE (KAF)466175
45UMTW1YAKIMA-AT UMTANUM11-30-2020DISCHARGE (KAF)23332273
46BUDW1BUMPING-BUMPING LAKE DAM11-30-2020INFLOW (KAF)203854
47CLFW1NACHES-NEAR CLIFFDEL11-30-2020DISCHARGE (KAF)6812754
48RILW1TIETON-RIMROCK LAKE NEAR RIMROCK11-30-2020INFLOW (KAF)487366
49NACW1NACHES-NEAR NACHES11-30-2020DISCHARGE (KAF)6411556
50PARW1YAKIMA-NEAR PARKER11-30-2020DISCHARGE (KAF)37057664
51KIOW1YAKIMA-AT KIONA11-30-2020DISCHARGE (KAF)54184264
52IPDI1HENRYS FORK-ISLAND PARK DAM11-30-2020INFLOW (KAF)9011280
53CHEI1FALL RIVER-NEAR CHESTER11-30-2020DISCHARGE (KAF)10311094
54ANTI1HENRYS FORK-AT ST. ANTHONY11-30-2020DISCHARGE (KAF)31134690
55TEAI1TETON-NEAR ST. ANTHONY11-30-2020DISCHARGE (KAF)879790
56REXI1HENRYS FORK-AT REXBURG11-30-2020DISCHARGE (KAF)36943286
57JLKW4SNAKE-JACKSON LAKE AT DAM11-30-2020INFLOW (KAF)8811875
58JKSW4SNAKE-NEAR JACKSON11-30-2020DISCHARGE (KAF)26830289
59ALPW4SNAKE-NEAR ALPINE11-30-2020DISCHARGE (KAF)32037186
60PLDI1SF SNAKE-PALISADES DAM11-30-2020INFLOW (KAF)52459788
61HEII1SNAKE-NEAR HEISE11-30-2020DISCHARGE (KAF)46156182
62RIDI1WILLOW CREEK-RIRIE DAM11-30-2020INFLOW (KAF)1310129
63SIFI1SNAKE-AB EAGLE ROCK NR IDAHO FALLS11-30-2020DISCHARGE (KAF)68681085
64SHYI1SNAKE-NEAR SHELLEY11-30-2020DISCHARGE (KAF)62982576
65SNAI1SNAKE-AT BLACKFOOT11-30-2020DISCHARGE (KAF)55875674
66BFTI1SNAKE-NEAR BLACKFOOT11-30-2020DISCHARGE (KAF)56480071
67PIHI1PORTNEUF-AT POCATELLO11-30-2020DISCHARGE (KAF)517370
68AFRI1SNAKE-AMERICAN FALLS RESERVOIR11-30-2020INFLOW (KAF)1209152179
69MILI1SNAKE-AT MILNER11-30-2020DISCHARGE (KAF)M711M
70HOTI1BRUNEAU-NEAR HOT SPRINGS11-30-2020DISCHARGE (KAF)193850
71SWAI1SNAKE-BELOW SWAN FALLS11-30-2020DISCHARGE (KAF)1721268164
72HWRI1BIG LOST-AT HOWELL RANCH NEAR CHILLY11-30-2020DISCHARGE (KAF)141977
73MACI1BIG LOST-MACKAY RESERVOIR NEAR MACKAY11-30-2020INFLOW (KAF)264619
74HALI1BIG WOOD-AT HAILEY11-30-2020DISCHARGE (KAF)323785
75MAGI1BIG WOOD-MAGIC DAM11-30-2020INFLOW (KAF)263772
76LWRI1LITTLE WOOD-LITTLE WOOD DAM11-30-2020INFLOW (KAF)101759
77OWYO3OWYHEE-OWYHEE DAM11-30-2020INFLOW (KAF)14315592
78ARAI1SF BOISE-ANDERSON RANCH DAM11-30-2020INFLOW (KAF)628970
79LUCI1BOISE-LUCKY PEAK DAM11-30-2020INFLOW (KAF)82MM
80BIGI1BOISE-AT GLENWOOD BRIDGE11-30-2020DISCHARGE (KAF)294663
81PARI1BOISE-NEAR PARMA11-30-2020DISCHARGE (KAF)17822579
82WRMO3MALHEUR-WARM SPRINGS DAM11-30-2020INFLOW (KAF)215141
83BERO3MALHEUR-AGENCY VALLEY DAM11-30-2020INFLOW (KAF)132845
84BULO3BULLY CREEK-BULLY CREEK DAM11-30-2020INFLOW (KAF)197263
85CSDI1NF PAYETTE-CASCADE DAM11-30-2020INFLOW (KAF)8110577
86DEDI1DEADWOOD-NEAR LOWMAN11-30-2020INFLOW (KAF)131967
87EMMI1PAYETTE-NEAR EMMETT11-30-2020DISCHARGE (KAF)28943067
88WSRI1WEISER-NEAR WEISER11-30-2020DISCHARGE (KAF)187181104
89WEII1SNAKE-AT WEISER11-30-2020DISCHARGE (KAF)2672408265
90BRNI1SNAKE-BROWNLEE DAM11-30-2020INFLOW (KAF)2914426768
91WHBI1SALMON-AT WHITEBIRD11-30-2020DISCHARGE (KAF)1014108494
92TRYO3GRANDE RONDE-TROY11-30-2020DISCHARGE (KAF)33147370
93ANAW1SNAKE-NEAR ANATONE11-30-2020DISCHARGE (KAF)4509654269
94ORFI1CLEARWATER-AT OROFINO11-30-2020DISCHARGE (KAF)54694258
95DWRI1NF CLEARWATER-DWORSHAK DAM11-30-2020INFLOW (KAF)65572890
96SPDI1CLEARWATER-AT SPALDING11-30-2020DISCHARGE (KAF)2052211697
97LGDW1SNAKE-LOWER GRANITE DAM11-30-2020INFLOW (KAF)6562880075
98LGSW1SNAKE-LITTLE GOOSE DAM11-30-2020INFLOW (KAF)6564886674
99LMNW1SNAKE-LOWER MONUMENTAL DAM11-30-2020INFLOW (KAF)6890907976
100IHDW1SNAKE-ICE HARBOR DAM11-30-2020INFLOW (KAF)6893901776
101TCHW1WALLA WALLA-NEAR TOUCHET11-30-2020DISCHARGE (KAF)15218781
102MCDW1COLUMBIA-MCNARY DAM11-30-2020INFLOW (KAF)3330632544102
103GIBO3UMATILLA-NEAR GIBBON11-30-2020DISCHARGE (KAF)5451106
104PDTO3UMATILLA-AT PENDLETON11-30-2020DISCHARGE (KAF)13213399
105MYKO3MCKAY CREEK-NEAR PILOT ROCK11-30-2020DISCHARGE (KAF)4231134
106UMAO3UMATILLA-NEAR UMATILLA11-30-2020DISCHARGE (KAF)161136118
107MONO3NF JOHN DAY-AT MONUMENT11-30-2020DISCHARGE (KAF)12123052
108SERO3JOHN DAY-AT SERVICE CK11-30-2020DISCHARGE (KAF)21838157
109JDAO3COLUMBIA-JOHN DAY DAM11-30-2020INFLOW (KAF)3481634154102
110MODO3DESCHUTES-AT MOODY NR BIGGS11-30-2020DISCHARGE (KAF)1170154876
111TDAO3COLUMBIA-THE DALLES DAM11-30-2020INFLOW (KAF)351983861391
112PITW1KLICKITAT-NEAR PITT11-30-2020DISCHARGE (KAF)31238182
113HODO3HOOD-NEAR TUCKER BRIDGE11-30-2020DISCHARGE (KAF)26027694
114UNDW1WHITE SALMON-NEAR UNDERWOOD11-30-2020DISCHARGE (KAF)21730172
115BONO3COLUMBIA-BONNEVILLE DAM11-30-2020INFLOW (KAF)359694115887